Theta_e
292 292 292 291 291 292 292 293 292 285 284 287 286 289 288 286 285 285 284 282 284 284 285 286 288 290 291 292 293 294 295 296 297 297 298 298 299 300
290 290 289 290 290 290 289 290 290 292 288 288 287 287 287 285 284 283 283 280 282 282 284 285 287 288 289 289 291 292 293 294 294 295 295 296 297 298
288 288 288 289 288 288 288 288 287 288 289 283 286 286 285 284 281 282 282 283 284 282 283 285 286 287 287 288 289 290 291 291 292 292 293 294 295 296
287 286 286 285 287 287 287 286 286 286 287 282 281 281 281 282 282 281 280 281 282 282 283 285 285 285 286 287 287 288 288 288 289 290 291 292 293 293
286 285 285 284 284 285 285 285 285 283 284 284 280 281 280 280 279 280 281 282 282 281 283 283 283 284 285 286 286 286 286 286 287 288 289 290 291 292
287 286 284 283 284 284 283 284 284 283 282 281 280 278 278 279 279 279 279 281 281 282 282 282 282 283 284 284 285 284 284 285 287 288 288 288 289 290
285 285 284 284 285 285 283 283 282 282 281 280 278 278 277 276 277 280 279 280 282 283 282 283 282 282 283 283 283 283 284 285 286 287 287 288 288 288
284 284 283 283 284 286 286 285 283 281 280 280 278 277 278 278 279 278 278 278 279 283 281 280 281 280 282 282 283 283 284 284 285 286 286 287 287 287
284 283 282 281 282 282 285 285 283 284 284 281 279 279 278 279 279 278 278 279 279 280 279 276 280 279 281 280 282 282 283 284 284 285 285 285 285 285
284 283 282 281 281 281 281 281 280 281 281 280 281 280 281 281 280 280 280 280 279 278 277 273 279 278 280 280 282 282 282 283 283 283 283 284 284 284
284 284 283 282 281 283 281 280 279 279 282 281 281 282 282 282 281 280 277 275 274 275 276 274 276 276 277 278 280 281 281 281 281 281 282 282 283 283
283 282 283 282 283 283 281 280 277 277 277 277 279 281 281 280 281 279 278 274 274 273 275 273 275 274 274 278 279 279 279 279 280 280 281 281 281 281
283 282 281 283 283 283 283 280 280 279 278 277 278 278 278 280 279 278 277 275 273 273 276 274 274 274 273 273 275 276 277 277 277 278 279 280 280 280
283 282 281 281 283 282 283 282 282 280 278 278 277 276 275 276 276 275 275 275 275 274 275 274 272 272 271 270 271 275 275 276 276 276 277 278 279 280
284 283 281 281 282 282 284 282 281 278 277 276 275 275 275 275 274 273 273 274 273 272 273 273 272 272 272 270 270 271 272 274 275 276 275 275 276 277
284 281 280 280 281 281 281 282 279 276 276 275 274 274 274 272 272 272 270 270 269 270 271 272 272 271 270 271 271 270 271 270 274 274 274 275 276 277
280 278 277 277 277 278 279 277 277 274 274 274 273 271 271 271 270 270 270 269 267 268 269 270 271 271 271 270 268 269 270 271 273 273 273 272 274 275
277 276 276 276 277 278 278 275 274 273 273 272 271 270 269 269 268 268 268 267 267 267 267 268 268 268 269 270 272 269 270 270 272 272 271 270 270 273
276 276 276 276 277 278 276 272 272 273 272 271 269 269 269 268 267 267 266 266 265 266 266 267 266 266 264 264 269 272 269 270 270 269 270 270 270 271
277 276 276 277 277 275 274 272 271 270 270 269 268 267 267 267 266 266 265 265 264 265 265 266 266 266 265 265 265 268 271 269 268 268 269 271 272 274
277 276 276 277 275 275 273 271 270 269 268 267 266 266 265 265 265 265 265 264 264 264 263 264 267 268 268 268 265 265 268 271 271 269 269 268 267 267
278 276 275 274 273 272 271 269 268 267 266 266 264 264 264 265 264 263 264 264 263 264 264 266 266 267 266 265 264 264 265 267 269 270 271 270 267 264
274 272 271 271 271 269 268 267 266 265 264 264 263 263 262 262 264 264 264 263 263 263 263 264 265 266 265 265 264 264 264 264 265 265 266 270 271 272
Wind_Speed
13 11 9 8 7 7 6 7 6 8 10 10 6 10 8 7 5 3 4 3 8 6 5 6 8 9 11 11 11 11 12 13 14 15 16 17 18 19
10 13 11 8 9 8 7 6 5 6 6 5 10 10 10 7 7 5 5 6 8 7 7 7 7 7 8 9 11 12 13 14 15 15 17 19 20 20
13 13 14 11 9 9 9 7 7 6 6 4 6 9 12 10 8 6 5 6 4 7 8 8 9 8 9 9 11 12 14 15 17 18 18 19 19 21
16 14 15 8 12 11 10 12 10 10 6 9 9 8 8 10 8 8 6 5 6 5 8 11 10 9 9 11 13 14 15 15 15 17 17 17 17 18
19 19 18 14 14 11 11 11 10 7 8 6 6 7 5 8 8 7 8 7 6 7 10 10 10 9 11 13 13 13 14 14 13 15 17 19 20 21
17 18 20 21 20 16 13 12 11 10 9 8 7 8 8 7 7 8 8 7 5 5 7 8 8 10 13 14 14 13 14 13 15 17 18 19 20 22
19 19 20 21 27 23 14 14 13 11 10 9 8 7 9 8 11 8 7 5 4 5 5 4 4 6 6 10 11 12 13 16 17 18 21 21 21 22
20 19 18 19 24 28 28 28 23 19 15 11 10 11 12 10 9 8 6 4 3 5 3 5 5 7 7 7 12 14 16 16 18 19 18 20 22 22
20 18 17 15 20 20 28 27 27 29 24 17 16 14 12 13 11 11 8 6 3 4 1 8 6 7 6 7 14 14 15 15 16 17 19 21 21 21
20 21 20 20 21 22 20 19 18 18 19 11 11 10 8 12 12 9 10 7 2 4 4 5 4 6 6 7 17 15 12 12 15 16 18 19 22 24
17 19 20 21 26 33 21 21 19 16 20 19 12 12 14 18 13 8 8 8 5 4 8 5 5 6 8 8 8 10 10 16 14 16 18 19 22 26
15 17 24 23 28 36 23 20 19 18 17 14 12 14 16 15 18 11 8 8 5 4 7 5 4 3 3 5 6 6 7 12 17 16 19 21 22 12
13 13 13 30 29 34 32 19 21 16 22 15 13 10 11 10 9 9 9 8 7 5 5 4 3 4 3 3 7 8 8 8 9 11 16 18 19 19
14 12 13 27 32 32 28 26 26 22 13 13 13 12 11 9 9 8 9 8 5 5 3 6 4 6 5 7 7 4 8 9 8 8 9 13 19 23
12 17 21 25 30 27 34 30 25 14 14 14 13 11 10 9 10 10 8 6 4 5 6 9 8 9 7 8 8 10 11 5 10 7 10 11 11 11
19 15 18 20 23 20 18 22 14 12 13 13 12 10 9 9 9 9 7 7 5 5 7 9 9 9 9 9 9 10 10 9 10 11 10 11 11 11
11 10 11 11 12 14 15 14 12 11 11 10 10 11 11 10 9 8 7 6 5 4 5 5 8 10 10 11 10 10 10 10 10 12 14 14 14 12
12 12 12 13 14 15 14 14 13 16 12 11 11 10 11 10 9 9 7 7 6 5 5 5 6 7 6 8 16 10 10 11 10 11 13 13 17 14
13 12 12 13 13 13 11 13 15 13 16 13 12 12 11 9 11 9 7 6 4 4 4 4 6 6 7 7 5 12 10 9 12 14 11 11 15 18
12 12 11 11 11 11 11 10 11 11 12 12 11 11 10 10 9 9 8 7 6 5 5 6 7 7 7 8 8 9 20 12 11 14 15 13 17 35
11 11 10 10 10 10 11 10 12 11 11 11 11 10 10 9 8 8 7 8 7 5 6 7 7 7 8 9 11 11 9 16 19 16 16 16 20 22
9 10 9 9 10 9 9 10 11 11 11 10 10 10 9 8 8 8 7 6 5 5 6 5 6 7 7 10 13 18 14 11 15 26 28 27 15 18
8 10 10 10 9 9 9 10 12 11 10 10 9 8 7 7 7 6 6 5 4 4 5 5 6 7 8 10 13 13 19 19 15 14 13 24 30 36
Wind_Direction
209 199 200 197 197 189 186 174 164 178 202 188 180 190 182 175 165 227 262 240 280 280 293 307 307 319 331 335 334 336 336 338 336 333 330 328 325 325
207 202 199 192 193 190 190 189 209 192 187 162 198 176 183 189 170 221 248 276 250 263 277 279 277 305 321 327 323 325 328 331 333 336 332 328 326 322
204 207 206 193 192 189 188 185 189 196 181 167 174 174 182 195 196 211 233 243 240 233 263 272 285 302 308 308 310 320 326 333 335 336 334 330 329 323
198 208 212 195 201 192 187 187 186 188 185 171 181 182 199 197 201 213 220 237 243 240 256 260 275 284 296 307 315 317 322 328 334 328 327 319 314 316
199 195 198 192 204 198 199 184 179 172 192 180 159 181 182 191 209 209 220 227 226 226 249 254 259 277 296 301 300 304 317 322 322 315 313 319 319 320
220 210 199 194 197 196 194 197 178 174 181 186 178 177 187 180 201 204 203 211 207 201 223 241 273 280 289 292 297 304 312 314 317 316 317 319 320 317
217 210 211 204 203 195 189 188 180 179 178 185 190 186 191 179 199 186 204 203 210 209 223 217 293 295 283 293 292 297 307 311 315 317 317 316 315 317
223 219 211 203 205 201 200 195 187 181 184 183 189 200 199 198 179 180 181 192 178 165 206 260 268 267 265 267 277 289 296 304 303 302 300 302 310 316
224 219 213 207 201 199 206 201 200 200 194 186 190 195 189 188 173 176 182 192 193 138 184 278 222 233 243 255 271 274 278 282 286 290 306 311 311 308
229 225 214 206 199 196 190 197 201 202 199 195 206 188 186 174 174 177 176 185 237 255 216 260 231 237 253 262 270 263 260 272 286 298 297 302 304 304
232 232 224 214 202 199 192 194 191 196 200 196 197 184 175 170 163 151 169 170 201 212 194 242 242 261 264 252 248 237 266 291 282 293 296 299 304 304
231 235 226 219 204 200 197 193 196 187 175 174 180 181 178 178 176 174 175 184 183 201 194 214 229 234 257 225 230 272 265 272 286 288 299 303 304 299
229 222 222 217 209 207 202 200 201 172 175 170 174 175 178 183 165 179 193 193 186 226 146 212 257 264 237 272 242 252 266 276 291 295 299 298 299 297
231 223 217 212 208 205 203 202 200 176 174 176 177 179 170 173 161 181 191 193 207 228 201 230 254 249 265 274 264 257 282 280 271 286 301 288 287 293
222 219 211 207 209 204 206 194 191 180 179 178 180 174 169 151 155 170 176 181 204 239 247 247 246 258 254 258 280 290 307 304 297 280 312 295 296 295
222 213 198 198 196 195 202 192 192 180 182 181 170 155 140 144 172 170 169 176 192 225 234 253 255 256 263 264 271 278 288 295 307 298 300 291 285 283
187 181 180 181 197 198 195 177 173 167 170 167 159 142 143 157 172 168 166 165 197 183 224 239 250 260 266 270 272 264 280 281 286 299 309 304 294 294
185 190 186 182 194 196 188 173 164 160 159 154 149 146 152 160 161 172 167 183 191 202 224 255 272 286 270 251 234 268 274 280 289 293 297 293 294 296
199 198 193 188 189 192 176 168 166 165 152 156 154 154 152 155 162 166 170 169 185 211 229 245 262 266 276 277 283 263 277 283 300 292 287 282 283 286
192 197 196 185 180 174 168 165 158 150 156 153 150 148 150 152 157 159 162 170 172 196 224 233 242 248 262 286 295 285 283 281 283 288 295 291 282 283
188 190 188 179 164 168 157 153 151 155 149 143 142 140 144 146 154 157 163 172 169 196 225 233 243 272 282 283 276 274 274 282 284 287 294 295 298 298
178 171 160 138 143 153 155 149 140 143 142 137 137 137 142 152 152 161 167 167 182 212 241 263 266 252 267 273 283 291 294 290 283 283 280 275 282 287
141 133 131 132 140 143 147 143 140 137 136 132 133 134 138 141 150 162 162 177 191 220 242 258 259 264 275 282 285 288 295 303 308 300 276 273 275 279